Volver al catálogo

STARLINK-11484

ActivoComunicacionesVLEO
NORAD 62277·PAYLOAD·🇺🇸 United States

Lanzado Dec 8, 2024 desde Cape Canaveral Space Force Station

Loading…

Próximos Pases (próximas 24 horas)

TLE

ActualizadoSource: CelesTrak SupGP

Época: Sep 14, 2026, 13:46 UTC

1 62277C 24237L   26257.57409722  .00009422  00000+0  73262-4 0  2577
2 62277  43.0007 358.1885 0001660 281.2230 223.0583 15.70807097    17

Sigue STARLINK-11484 en tiempo real con AllMySat

Download on the App Store